Location: Dzierzno
(50.6159°N, 19.2852°E)
Time: 21:16:12
(UTC+00:00)

Cosmos 2227 Rocket - Pass Details

Date: 18 November 2025
Orbit: 839 x 842 km, 71.0° (Epoch: 04 December)

Event Time Altitude Azimuth Distance (km) Brightness Sun altitude
Rises 17:32:56 0° 325° (NW) 3,405 5.8 -25.1°
Reaches altitude 10° 17:38:00 10° 4° (N) 2,468 4.6 -25.9°
Enters shadow 17:38:40 10° 11° (N) 2,435 4.5 -26.0°
